TimePDT,TemperatureF,Dew PointF,Humidity,Sea Level PressureIn,VisibilityMPH,Wind Direction,Wind SpeedMPH,Gust SpeedMPH,PrecipitationIn,Events,Conditions,WindDirDegrees,DateUTC
12:35 AM,42.8,39.2,87,30.06,10.0,Calm,Calm,-,N/A,,Unknown,0,2012-10-09 07:35:00
12:55 AM,41.0,37.4,87,30.06,10.0,Calm,Calm,-,N/A,,Unknown,0,2012-10-09 07:55:00
1:15 AM,41.0,37.4,87,30.06,10.0,Calm,Calm,-,N/A,,Unknown,0,2012-10-09 08:15:00
1:35 AM,41.0,37.4,87,30.06,10.0,Calm,Calm,-,N/A,,Unknown,0,2012-10-09 08:35:00
1:55 AM,41.0,37.4,87,30.07,10.0,Calm,Calm,-,N/A,,Unknown,0,2012-10-09 08:55:00
2:15 AM,41.0,37.4,87,30.07,10.0,Calm,Calm,-,N/A,,Unknown,0,2012-10-09 09:15:00
2:35 AM,41.0,37.4,87,30.07,10.0,Calm,Calm,-,N/A,,Unknown,0,2012-10-09 09:35:00
2:55 AM,39.2,37.4,93,30.07,10.0,Calm,Calm,-,N/A,,Unknown,0,2012-10-09 09:55:00
3:15 AM,39.2,37.4,93,30.07,10.0,NNE,3.5,-,N/A,,Unknown,30,2012-10-09 10:15:00
3:35 AM,39.2,37.4,93,30.07,10.0,Calm,Calm,-,N/A,,Unknown,0,2012-10-09 10:35:00
3:55 AM,39.2,37.4,93,30.06,10.0,Calm,Calm,-,N/A,,Unknown,0,2012-10-09 10:55:00
4:15 AM,39.2,37.4,93,30.07,10.0,Calm,Calm,-,N/A,,Unknown,0,2012-10-09 11:15:00
4:35 AM,39.2,35.6,87,30.07,10.0,Calm,Calm,-,N/A,,Unknown,0,2012-10-09 11:35:00
4:55 AM,39.2,35.6,87,30.06,10.0,Calm,Calm,-,N/A,,Unknown,0,2012-10-09 11:55:00
5:15 AM,39.2,35.6,87,30.06,10.0,Calm,Calm,-,N/A,,Unknown,0,2012-10-09 12:15:00
5:35 AM,39.2,35.6,87,30.06,10.0,Calm,Calm,-,N/A,,Unknown,0,2012-10-09 12:35:00
5:55 AM,37.4,35.6,93,30.06,10.0,East,3.5,-,N/A,,Unknown,80,2012-10-09 12:55:00
6:35 AM,37.4,35.6,93,30.07,10.0,Calm,Calm,-,N/A,,Unknown,0,2012-10-09 13:35:00
6:55 AM,37.4,35.6,93,30.07,10.0,Calm,Calm,-,N/A,,Unknown,0,2012-10-09 13:55:00
7:15 AM,37.4,35.6,93,30.07,10.0,Calm,Calm,-,N/A,,Unknown,0,2012-10-09 14:15:00
7:35 AM,37.4,35.6,93,30.07,10.0,Calm,Calm,-,N/A,,Unknown,0,2012-10-09 14:35:00
7:55 AM,37.4,35.6,93,30.08,10.0,Calm,Calm,-,N/A,,Unknown,0,2012-10-09 14:55:00
8:15 AM,39.2,35.6,87,30.08,10.0,Calm,Calm,-,N/A,,Unknown,0,2012-10-09 15:15:00
8:35 AM,41.0,37.4,87,30.08,10.0,Calm,Calm,-,N/A,,Unknown,0,2012-10-09 15:35:00
8:55 AM,44.6,39.2,81,30.08,10.0,Calm,Calm,-,N/A,,Unknown,0,2012-10-09 15:55:00
9:15 AM,44.6,39.2,81,30.08,10.0,Calm,Calm,-,N/A,,Unknown,0,2012-10-09 16:15:00
9:35 AM,48.2,41.0,76,30.08,10.0,Calm,Calm,-,N/A,,Unknown,0,2012-10-09 16:35:00
9:55 AM,50.0,41.0,71,30.08,10.0,South,3.5,-,N/A,,Unknown,190,2012-10-09 16:55:00
10:15 AM,51.8,42.8,71,30.07,10.0,SW,3.5,-,N/A,,Unknown,220,2012-10-09 17:15:00
10:35 AM,53.6,41.0,62,30.07,10.0,SSW,4.6,-,N/A,,Unknown,210,2012-10-09 17:35:00
10:55 AM,55.4,41.0,58,30.06,10.0,South,3.5,-,N/A,,Unknown,190,2012-10-09 17:55:00
11:15 AM,57.2,42.8,59,30.06,10.0,Calm,Calm,-,N/A,,Unknown,0,2012-10-09 18:15:00
11:35 AM,59.0,42.8,55,30.05,10.0,South,4.6,-,N/A,,Unknown,190,2012-10-09 18:35:00
11:55 AM,62.6,42.8,48,30.04,10.0,SW,3.5,-,N/A,,Unknown,220,2012-10-09 18:55:00
12:15 PM,64.4,42.8,45,30.03,10.0,SSW,3.5,-,N/A,,Unknown,200,2012-10-09 19:15:00
12:35 PM,66.2,41.0,40,30.02,10.0,North,4.6,-,N/A,,Unknown,360,2012-10-09 19:35:00
12:55 PM,68.0,39.2,35,30.02,10.0,NNE,3.5,-,N/A,,Unknown,20,2012-10-09 19:55:00
1:15 PM,68.0,37.4,33,30.01,10.0,ESE,3.5,-,N/A,,Unknown,120,2012-10-09 20:15:00
1:35 PM,69.8,37.4,31,30.00,10.0,Calm,Calm,-,N/A,,Unknown,0,2012-10-09 20:35:00
1:55 PM,71.6,37.4,29,29.99,10.0,ENE,3.5,-,N/A,,Unknown,60,2012-10-09 20:55:00
2:15 PM,71.6,35.6,27,29.98,10.0,SSW,4.6,-,N/A,,Unknown,210,2012-10-09 21:15:00
2:35 PM,71.6,33.8,25,29.98,10.0,SE,3.5,-,N/A,,Unknown,130,2012-10-09 21:35:00
2:55 PM,71.6,32.0,23,29.98,10.0,Calm,Calm,-,N/A,,Unknown,0,2012-10-09 21:55:00
3:15 PM,71.6,32.0,23,29.98,10.0,South,3.5,-,N/A,,Unknown,180,2012-10-09 22:15:00
3:35 PM,73.4,33.8,23,29.98,10.0,Calm,Calm,-,N/A,,Unknown,0,2012-10-09 22:35:00
3:55 PM,71.6,35.6,27,29.97,10.0,SE,4.6,-,N/A,,Unknown,130,2012-10-09 22:55:00
4:15 PM,71.6,35.6,27,29.97,10.0,South,5.8,-,N/A,,Unknown,180,2012-10-09 23:15:00
4:35 PM,71.6,35.6,27,29.97,10.0,ESE,3.5,-,N/A,,Unknown,110,2012-10-09 23:35:00
4:55 PM,71.6,35.6,27,29.97,10.0,SSE,4.6,-,N/A,,Unknown,160,2012-10-09 23:55:00
5:15 PM,71.6,35.6,27,29.97,10.0,Calm,Calm,-,N/A,,Unknown,0,2012-10-10 00:15:00
5:35 PM,71.6,35.6,27,29.97,10.0,Calm,Calm,-,N/A,,Unknown,0,2012-10-10 00:35:00
5:55 PM,69.8,35.6,28,29.97,10.0,South,3.5,-,N/A,,Unknown,190,2012-10-10 00:55:00
6:15 PM,68.0,37.4,33,29.97,10.0,Calm,Calm,-,N/A,,Unknown,0,2012-10-10 01:15:00
6:35 PM,64.4,39.2,40,29.97,10.0,NE,3.5,-,N/A,,Unknown,50,2012-10-10 01:35:00
6:55 PM,60.8,39.2,45,29.96,10.0,NNE,4.6,-,N/A,,Unknown,20,2012-10-10 01:55:00
7:15 PM,57.2,37.4,48,29.97,10.0,Calm,Calm,-,N/A,,Unknown,0,2012-10-10 02:15:00
7:35 PM,57.2,37.4,48,29.97,10.0,North,3.5,-,N/A,,Unknown,350,2012-10-10 02:35:00
7:55 PM,55.4,37.4,51,29.97,10.0,Calm,Calm,-,N/A,,Unknown,0,2012-10-10 02:55:00
8:15 PM,53.6,37.4,54,29.98,10.0,Calm,Calm,-,N/A,,Unknown,0,2012-10-10 03:15:00
8:35 PM,51.8,37.4,58,29.98,10.0,Calm,Calm,-,N/A,,Unknown,0,2012-10-10 03:35:00
8:55 PM,51.8,37.4,58,29.98,10.0,NNE,4.6,-,N/A,,Unknown,30,2012-10-10 03:55:00
9:15 PM,50.0,37.4,62,29.98,10.0,Calm,Calm,-,N/A,,Unknown,0,2012-10-10 04:15:00
9:35 PM,48.2,35.6,62,29.99,10.0,NNW,3.5,-,N/A,,Unknown,340,2012-10-10 04:35:00
9:55 PM,48.2,35.6,62,29.99,10.0,Calm,Calm,-,N/A,,Unknown,0,2012-10-10 04:55:00
10:15 PM,48.2,35.6,62,29.99,10.0,Calm,Calm,-,N/A,,Unknown,0,2012-10-10 05:15:00
10:35 PM,46.4,37.4,71,30.00,10.0,Calm,Calm,-,N/A,,Unknown,0,2012-10-10 05:35:00
10:55 PM,46.4,35.6,66,30.00,10.0,Calm,Calm,-,N/A,,Unknown,0,2012-10-10 05:55:00
11:15 PM,44.6,35.6,71,30.00,10.0,Calm,Calm,-,N/A,,Unknown,0,2012-10-10 06:15:00
11:35 PM,44.6,35.6,71,30.00,10.0,Calm,Calm,-,N/A,,Unknown,0,2012-10-10 06:35:00
11:55 PM,44.6,35.6,71,30.00,10.0,Calm,Calm,-,N/A,,Unknown,0,2012-10-10 06:55:00